Location: Unspecified
(0.0000°N, 0.0000°E)
Time: 19:32:39
(UTC+00:00)

Vanguard 3 - Pass Details

Date: 28 September 2023
Orbit: 507 x 3241 km, 33.3° (Epoch: 29 November)

Event Time Altitude Azimuth Distance (km) Brightness Sun altitude
Rises 17:40:05 0° 266° (W) 6,952 15.6 2.6°
Reaches altitude 10° 17:46:52 10° 279° (W) 5,574 13.4 0.9°
Maximum altitude 17:57:40 22° 322° (NW) 3,833 11.1 -1.8°
Drops below altitude 10° 18:05:31 10° 9° (N) 3,888 10.5 -3.7°
Sets 18:09:10 0° 25° (NNE) 4,443 10.7 -4.6°
